Wind_Speed
5 6 5 6 7 7 8 9 10 9 9 9 9 9 9 9 8 8 8 7 7 7 7 7 7 6 6 5 5 6 5 6 5 5 5 5 6 6 7 7 8 8 8
4 5 6 6 7 7 8 8 8 8 9 9 9 9 8 8 8 8 8 7 7 6 6 6 6 5 5 5 5 5 5 6 5 5 5 6 6 7 7 7 7 7 8
4 5 5 6 6 7 7 7 8 8 8 8 8 8 8 8 7 7 7 7 6 6 6 6 5 5 5 5 5 5 5 5 5 5 5 6 6 6 7 7 7 7 7
3 4 5 5 6 7 6 6 7 8 8 7 7 7 7 7 7 7 6 5 5 5 5 5 5 5 5 5 5 5 5 5 5 4 4 5 5 6 7 7 7 7 7
3 4 5 5 5 5 5 6 6 7 7 7 7 7 7 6 6 6 6 5 5 5 5 5 4 4 4 4 5 5 5 5 5 4 5 6 6 6 6 7 7 6 6
3 3 4 4 4 4 4 5 5 7 7 7 7 7 6 6 6 6 5 5 4 5 5 4 4 4 4 4 4 4 5 5 4 4 5 6 6 6 6 6 6 5 5
2 2 3 3 4 4 4 4 5 5 6 6 6 6 6 5 5 5 5 4 4 5 4 4 4 4 4 4 4 4 4 4 4 3 4 6 6 5 6 6 5 5 5
2 1 2 2 3 4 4 5 5 5 5 6 6 6 6 5 5 4 4 4 4 4 4 3 4 4 4 4 4 3 4 4 3 3 4 5 5 5 5 5 4 4 5
1 1 1 2 3 4 5 5 5 6 6 6 6 6 6 5 4 4 4 4 4 4 3 3 3 3 3 3 3 3 3 3 3 3 4 4 4 4 4 4 4 4 4
2 1 1 2 3 4 5 7 6 6 7 7 7 6 6 5 5 5 4 4 3 4 3 3 3 3 2 3 2 2 2 3 2 2 3 3 3 3 3 3 3 3 3
4 2 2 3 4 5 5 7 8 7 7 7 8 7 6 5 4 4 3 3 3 4 3 3 3 3 2 3 2 2 3 3 2 2 3 3 3 3 2 2 2 2 2
6 4 4 5 5 5 6 6 8 8 8 8 8 8 7 5 5 4 3 3 3 4 4 3 3 3 3 2 2 2 2 2 2 2 2 2 2 2 2 1 1 1 1
8 7 6 6 5 5 6 7 7 8 8 8 8 8 7 6 5 4 4 3 3 3 3 3 3 3 3 2 2 2 2 2 2 2 1 1 1 1 1 0 0 0 0
9 9 8 7 5 4 5 5 7 7 8 8 8 8 7 7 5 5 4 3 3 4 3 3 3 3 3 3 2 2 2 2 2 1 1 1 1 0 0 0 1 1 1
10 9 9 8 7 6 6 6 6 7 8 8 7 7 6 6 6 5 4 4 4 3 3 3 3 3 3 2 2 2 1 1 1 1 0 1 1 1 1 1 1 1 1
11 11 10 8 8 7 7 6 6 7 8 8 8 8 7 7 6 6 5 4 3 3 3 3 3 3 2 2 2 2 1 1 1 0 0 1 1 0 1 2 1 2 2
13 12 11 9 10 9 8 6 6 7 8 8 9 9 8 8 7 7 6 5 4 4 3 3 3 3 2 1 1 1 2 1 1 1 1 1 1 1 2 2 2 2 2
15 14 11 10 10 9 7 5 5 6 7 8 9 9 9 9 8 7 7 6 5 5 4 3 4 4 3 3 2 2 1 2 2 2 1 1 1 2 2 3 3 3 3
15 15 12 10 11 9 7 5 5 5 7 8 9 10 10 10 9 8 8 7 6 6 5 4 4 4 4 4 3 3 2 3 3 2 3 3 3 3 3 4 4 4 4
16 15 13 11 11 10 8 6 5 4 6 8 9 9 10 10 10 9 9 8 7 7 6 5 5 5 5 5 4 4 4 4 4 4 4 4 4 3 4 4 5 5 5
17 16 13 11 11 10 9 7 5 5 6 8 9 10 10 10 11 10 10 9 9 8 7 6 6 6 6 6 5 6 5 5 5 6 5 6 5 5 5 6 6 6 6
17 16 14 12 11 11 10 8 6 6 6 7 8 10 11 11 11 11 11 10 9 9 8 7 7 7 7 7 7 6 7 7 7 8 8 8 8 7 7 7 8 8 8
17 16 15 13 12 11 11 10 8 7 7 7 8 9 11 11 11 12 12 11 10 10 9 9 9 9 8 8 8 8 8 9 9 9 8 9 9 9 9 8 9 9 9
17 17 15 14 13 12 11 10 9 8 7 8 9 9 10 11 12 12 12 12 11 11 10 10 10 10 10 9 9 9 9 9 10 9 9 10 10 10 11 10 10 10 11
17 17 16 15 14 13 12 10 9 8 7 7 8 9 9 11 12 13 13 13 12 12 11 11 11 11 10 10 10 11 11 11 11 12 12 11 11 12 12 13 13 13 13
17 16 16 15 14 14 13 11 9 8 8 7 8 9 10 10 11 12 12 13 13 12 12 12 12 12 11 12 12 12 12 12 12 13 13 13 14 14 15 16 15 15 16
Wind_Direction
121 117 125 133 139 145 156 158 157 159 159 157 156 154 151 148 144 141 137 130 123 117 112 109 105 100 95 88 85 89 87 86 85 84 78 87 96 102 103 103 99 97 96
125 123 130 138 145 147 147 152 154 158 160 158 159 159 158 153 148 144 140 135 127 122 118 113 107 102 96 88 87 91 90 87 88 82 80 91 101 109 108 107 102 99 97
137 137 138 144 150 152 151 154 161 165 166 164 164 163 163 158 152 146 143 139 133 126 119 115 107 104 98 94 96 96 90 88 91 87 90 94 101 109 110 105 101 99 94
149 154 158 155 157 158 157 158 163 174 175 174 176 174 171 164 160 156 152 145 141 134 129 121 112 109 104 103 103 100 91 87 86 87 90 93 99 111 111 103 101 99 95
142 153 161 168 169 167 170 173 176 184 184 181 182 177 170 166 165 161 155 149 147 141 133 124 115 111 107 110 110 101 92 87 91 87 90 89 91 101 106 101 94 96 93
123 143 158 171 177 184 184 191 197 199 196 188 187 183 177 173 170 166 162 157 149 142 134 125 121 116 112 116 113 98 93 92 94 86 90 93 94 93 97 95 90 90 92
98 130 150 168 175 185 189 198 206 204 198 197 198 196 189 183 179 177 171 161 151 144 136 128 128 120 120 125 117 100 93 94 102 93 89 100 96 90 90 86 91 94 94
83 121 153 179 182 196 206 215 220 220 216 211 207 204 201 197 192 187 174 167 160 151 142 137 129 124 127 129 118 106 101 105 95 89 93 98 95 90 85 79 87 96 97
70 57 208 213 216 221 224 226 224 228 226 219 212 207 204 198 197 196 187 178 171 159 148 146 138 129 129 128 126 118 113 109 94 85 91 96 98 92 86 76 85 98 95
4 318 268 230 235 239 241 236 231 231 229 229 220 214 212 209 205 202 198 188 179 167 158 150 143 140 139 142 137 127 123 115 101 100 100 104 96 91 84 76 89 97 90
351 329 288 248 250 257 255 240 234 234 234 233 225 221 219 217 212 203 200 189 182 172 162 160 158 156 153 147 138 123 119 113 103 101 104 102 94 89 77 73 84 103 95
360 342 308 287 272 262 255 247 236 234 237 234 226 223 223 223 211 207 202 199 188 174 171 172 169 161 157 150 143 127 123 127 116 122 114 98 94 90 68 64 72 116 118
3 356 337 310 289 275 265 249 235 232 232 233 228 223 225 222 220 212 208 208 193 182 181 179 172 166 162 160 150 145 143 141 135 143 143 124 117 97 54 58 178 143 179
7 0 349 338 324 301 286 270 237 233 230 230 226 222 225 224 223 217 211 210 203 194 187 176 173 167 170 171 159 154 155 152 157 165 166 171 177 175 338 4 249 307 314
358 355 348 341 335 323 305 293 251 235 233 228 225 221 221 226 228 222 218 213 208 195 192 196 188 181 182 178 183 178 180 170 182 182 155 187 204 278 308 308 301 308 308
354 350 346 341 335 323 310 292 254 238 233 230 226 226 227 229 232 232 224 227 221 203 204 203 198 204 205 209 201 205 220 207 169 198 229 216 226 306 339 335 321 324 306
353 349 344 342 339 333 318 297 259 246 235 228 226 230 233 232 235 233 232 239 232 220 215 219 211 220 217 215 222 239 232 222 222 247 259 213 241 297 323 337 329 321 309
354 352 347 344 341 340 332 311 268 250 238 229 227 231 235 234 235 231 237 241 235 226 228 230 226 230 234 234 242 250 240 242 255 253 241 233 261 290 304 317 331 323 316
357 356 352 348 344 343 342 328 303 262 244 235 231 234 234 230 233 234 236 240 239 237 238 239 238 239 240 241 244 247 253 248 255 258 256 256 271 296 304 311 314 317 313
354 354 351 346 344 345 339 325 318 279 251 245 239 236 232 231 234 234 235 238 240 243 248 247 247 252 252 249 249 251 257 260 264 269 264 267 277 289 299 302 305 307 308
354 353 352 344 341 341 338 326 314 294 267 252 242 236 233 234 233 233 234 235 239 242 246 253 255 255 258 255 254 255 260 268 271 272 271 276 277 285 291 295 301 299 299
353 353 351 346 340 339 336 333 317 293 278 264 253 240 235 237 236 235 233 234 237 239 241 251 258 260 260 256 256 261 263 266 268 271 273 276 281 282 284 285 290 291 291
351 351 349 344 341 339 335 329 319 291 280 270 256 243 237 237 236 235 234 236 240 240 243 251 259 262 264 262 261 263 264 264 272 272 273 276 278 279 283 286 287 287 290
347 347 345 342 338 336 331 325 318 306 290 271 254 245 240 237 235 235 234 235 239 243 247 254 262 263 265 264 263 265 270 273 277 278 278 278 279 281 283 284 284 285 288
345 345 343 340 337 335 334 326 316 310 298 283 260 249 245 241 238 238 236 236 242 246 251 258 265 266 266 267 267 267 272 276 278 279 280 282 281 280 283 282 283 285 287
342 342 340 338 336 335 332 328 321 314 304 290 271 254 250 244 241 239 239 241 247 248 251 257 262 267 270 269 269 270 274 278 282 280 281 282 283 282 282 282 282 284 286
Height
5895 5894 5895 5896 5897 5898 5898 5899 5900 5901 5901 5902 5902 5902 5903 5903 5903 5904 5904 5905 5905 5905 5905 5905 5905 5906 5906 5906 5906 5906 5906 5907 5907 5907 5907 5907 5907 5908 5909 5909 5910 5910 5911
5896 5896 5897 5897 5898 5899 5900 5901 5901 5902 5902 5903 5903 5904 5904 5904 5904 5905 5905 5905 5906 5906 5906 5906 5906 5907 5907 5907 5907 5907 5907 5907 5908 5908 5908 5908 5909 5909 5910 5910 5911 5912 5912
5897 5897 5898 5899 5899 5900 5901 5902 5902 5903 5903 5903 5904 5904 5905 5905 5905 5906 5906 5906 5907 5907 5907 5907 5907 5907 5908 5908 5908 5908 5908 5908 5909 5909 5909 5910 5910 5910 5911 5911 5912 5913 5913
5898 5899 5899 5900 5900 5901 5902 5902 5903 5904 5904 5904 5905 5905 5906 5906 5906 5907 5907 5907 5907 5908 5908 5908 5908 5908 5909 5909 5909 5909 5910 5910 5910 5910 5910 5911 5911 5911 5912 5913 5913 5914 5914
5899 5900 5900 5901 5901 5902 5902 5903 5904 5905 5905 5905 5906 5906 5906 5907 5907 5907 5908 5908 5908 5908 5909 5909 5909 5909 5909 5910 5910 5910 5911 5911 5911 5911 5911 5912 5912 5913 5913 5914 5914 5915 5915
5900 5900 5901 5901 5902 5903 5903 5904 5905 5905 5906 5906 5906 5906 5907 5907 5908 5908 5908 5908 5908 5909 5909 5909 5910 5910 5910 5911 5911 5911 5912 5912 5912 5912 5912 5913 5914 5914 5915 5915 5915 5916 5916
5901 5901 5901 5902 5903 5903 5904 5904 5905 5905 5906 5906 5907 5907 5908 5908 5908 5909 5909 5909 5909 5909 5910 5910 5910 5911 5911 5911 5912 5912 5912 5913 5913 5913 5914 5914 5915 5915 5916 5916 5917 5917 5917
5902 5902 5902 5902 5903 5903 5904 5905 5905 5906 5906 5907 5907 5908 5908 5908 5909 5909 5909 5909 5909 5910 5910 5911 5911 5911 5912 5912 5913 5913 5913 5914 5914 5914 5914 5915 5916 5916 5917 5917 5917 5918 5918
5902 5902 5902 5903 5903 5903 5904 5904 5905 5906 5906 5907 5907 5908 5908 5909 5909 5909 5909 5910 5910 5910 5911 5911 5911 5912 5912 5913 5913 5914 5914 5914 5915 5915 5915 5916 5916 5917 5917 5918 5918 5919 5919
5903 5902 5902 5903 5903 5903 5904 5904 5905 5905 5906 5906 5907 5908 5908 5909 5909 5909 5910 5910 5910 5911 5911 5912 5912 5912 5913 5913 5913 5914 5914 5915 5915 5916 5916 5917 5917 5918 5918 5918 5919 5919 5920
5902 5902 5902 5902 5903 5903 5903 5903 5904 5905 5905 5906 5907 5907 5908 5908 5909 5909 5910 5910 5911 5911 5912 5912 5912 5913 5913 5914 5914 5914 5915 5915 5916 5916 5917 5917 5918 5918 5918 5919 5919 5920 5920
5903 5902 5902 5902 5902 5902 5902 5902 5903 5904 5904 5905 5906 5907 5908 5908 5909 5910 5910 5911 5911 5912 5912 5912 5913 5913 5914 5914 5915 5915 5915 5916 5916 5917 5917 5918 5918 5918 5919 5919 5919 5920 5920
5903 5902 5902 5901 5901 5901 5901 5901 5902 5903 5904 5904 5905 5906 5907 5908 5909 5910 5910 5911 5911 5912 5913 5913 5913 5914 5914 5915 5915 5915 5916 5916 5917 5917 5917 5918 5918 5919 5919 5919 5919 5920 5920
5904 5902 5901 5901 5900 5900 5900 5900 5900 5902 5902 5904 5905 5906 5907 5908 5909 5910 5911 5911 5912 5912 5913 5913 5914 5914 5915 5915 5915 5916 5916 5916 5917 5917 5918 5918 5918 5919 5919 5919 5919 5920 5920
5904 5903 5902 5901 5900 5900 5899 5899 5900 5901 5902 5903 5904 5905 5906 5907 5909 5910 5910 5911 5912 5913 5913 5914 5914 5915 5915 5915 5916 5916 5916 5917 5917 5917 5918 5918 5918 5919 5919 5919 5919 5920 5920
5905 5903 5902 5901 5900 5899 5899 5899 5899 5900 5901 5902 5904 5905 5906 5907 5909 5910 5910 5911 5912 5913 5913 5914 5914 5914 5915 5915 5916 5916 5917 5917 5917 5918 5918 5918 5918 5919 5919 5919 5919 5919 5919
5905 5903 5902 5901 5900 5899 5898 5898 5898 5899 5900 5902 5903 5904 5905 5907 5908 5909 5910 5911 5912 5913 5913 5914 5914 5914 5915 5915 5916 5917 5917 5917 5917 5918 5918 5918 5918 5919 5919 5919 5919 5919 5919
5905 5903 5902 5901 5899 5898 5897 5897 5897 5898 5899 5900 5902 5903 5904 5906 5907 5909 5910 5911 5911 5912 5913 5914 5914 5914 5915 5915 5916 5916 5917 5917 5917 5917 5918 5918 5918 5918 5918 5918 5918 5918 5918
5905 5903 5901 5900 5899 5898 5897 5897 5897 5897 5898 5899 5900 5902 5903 5904 5906 5908 5909 5910 5911 5912 5912 5913 5914 5914 5915 5915 5915 5916 5916 5917 5917 5917 5917 5917 5918 5918 5918 5918 5918 5918 5917
5905 5904 5902 5900 5899 5898 5897 5896 5896 5896 5897 5898 5899 5900 5901 5903 5904 5906 5908 5909 5910 5911 5912 5913 5913 5914 5914 5914 5915 5915 5915 5916 5916 5916 5916 5917 5917 5917 5917 5917 5917 5917 5916
5905 5903 5902 5900 5899 5897 5896 5896 5895 5895 5896 5897 5898 5899 5900 5902 5903 5905 5906 5908 5909 5910 5911 5912 5912 5913 5913 5913 5914 5914 5914 5915 5915 5915 5915 5915 5915 5916 5916 5916 5916 5915 5915
5906 5903 5901 5900 5898 5897 5896 5895 5895 5895 5895 5895 5896 5897 5899 5900 5901 5903 5905 5906 5907 5908 5910 5910 5911 5912 5912 5912 5912 5913 5913 5914 5913 5913 5914 5914 5914 5914 5914 5914 5914 5914 5914
5906 5903 5901 5900 5898 5897 5896 5895 5894 5893 5894 5894 5895 5896 5897 5898 5899 5901 5903 5904 5906 5907 5908 5909 5909 5910 5910 5911 5911 5911 5912 5912 5912 5912 5912 5912 5912 5912 5912 5912 5912 5912 5912
5906 5903 5901 5899 5898 5896 5895 5894 5893 5892 5892 5892 5893 5894 5895 5896 5898 5899 5901 5902 5904 5905 5906 5907 5907 5908 5908 5909 5909 5909 5910 5910 5910 5910 5910 5910 5910 5910 5910 5910 5910 5909 5909
5906 5903 5901 5899 5897 5895 5894 5893 5892 5891 5891 5891 5891 5892 5893 5894 5896 5897 5898 5900 5901 5903 5904 5904 5905 5905 5906 5906 5906 5907 5907 5907 5907 5907 5907 5908 5908 5907 5907 5907 5907 5907 5906
5905 5903 5901 5899 5897 5895 5893 5892 5891 5890 5890 5890 5890 5891 5891 5893 5894 5895 5897 5898 5899 5900 5901 5902 5903 5903 5903 5904 5904 5904 5904 5904 5904 5904 5905 5905 5905 5905 5904 5904 5904 5903 5903